Home > Weather > Whitstable > Past weeks

Flag for United Kingdom Weather for the Past 2 Weeks in Whitstable, England, United Kingdom

Now
35 °F

Chilly.


Feels Like: 27 °F
Forecast: 36 / 44 °F
Wind: 12 mph from West

Location: Manston

Current Time: Feb 11, 2016 at 1:38:58 AM

Latest Report: Feb 10, 2016 at 11:00 PM


Visibility: 14 mi

Pressure: 29.63 "Hg

Humidity: 91%

Dew point: 33 °F

Location of WhitstableLocation

Historic Weather in Whitstable — Graph

°F

Whitstable Temperature Yesterday

Maximum temperature yesterday: 45 °F (at 4:00 PM)
Minimum temperature yesterday: 34 °F (at 10:00 PM)
Average temperature yesterday: 41 °F

High & Low Weather Summary for the Past Weeks

 TemperatureHumidityPressure
High55 °F (Jan 31, 7:00 PM)100% (Jan 31, 11:00 AM)30.35 "Hg (Jan 31, 11:00 AM)
Low34 °F (Feb 10, 10:00 PM)53% (Feb 2, 2:00 PM)29.03 "Hg (Feb 9, 12:00 PM)
Average46 °F85%29.78 "Hg
* Reported Jan 27 4:00 AM — Feb 10 11:00 PM, Whitstable, Weather by CustomWeather, © 2016

Note: Actual official high and low records may vary slightly from our data, if they occured in-between our weather recording intervals... More about our weather records

Advertising

Whitstable Weather History for the Previous 24 Hours

 ConditionsComfort  
Time TempWeatherWind HumidityBarometerVisibility
11:00 PM
Wed, Feb 10
35 °FChilly.12 mph91%29.63 "Hg14 mi
10:00 PM34 °FChilly.9 mph91%29.62 "Hg17 mi
9:00 PM36 °FChilly.10 mph90%29.60 "Hg17 mi
8:00 PM37 °FChilly.9 mph89%29.58 "Hg19 mi
7:00 PM37 °FChilly.9 mph87%29.56 "Hg19 mi
6:00 PM40 °FQuite cool.8 mph87%29.54 "Hg31 mi
5:00 PM40 °FQuite cool.9 mph85%29.50 "Hg31 mi
4:00 PM45 °FCool.12 mph77%29.47 "Hg25 mi
3:00 PM44 °FQuite cool.8 mph85%29.47 "Hg28 mi
2:00 PM44 °FQuite cool.12 mph84%29.44 "Hg19 mi
1:00 PM44 °FRain showers. Cloudy.12 mph87%29.41 "Hg28 mi
12:00 PM44 °FQuite cool.16 mph80%29.41 "Hg28 mi
11:00 AM44 °FQuite cool.20 mph84%29.38 "Hg22 mi
10:00 AM42 °FQuite cool.17 mph86%29.35 "Hg25 mi
9:00 AM41 °FQuite cool.16 mph88%29.35 "Hg28 mi
8:00 AM41 °FQuite cool.18 mph88%29.32 "Hg18 mi
7:00 AM41 °FQuite cool.18 mph85%29.29 "Hg31 mi
6:00 AM41 °FQuite cool.16 mph85%29.29 "Hg31 mi
5:00 AM41 °FQuite cool.17 mph87%29.26 "Hg28 mi
4:00 AM40 °FChilly.15 mph91%29.23 "Hg31 mi
Weather by CustomWeather, © 2016

See weather overviewHow to use our weather pages